Showing default

HOTBIRD 13G, 54225

Orbit data source: Space-Track

HOTBIRD 13G, 54225 is a payload satellite owned by EutelsatSA (FR) in GEO that was launched on Thu, 03 Nov 2022 UTC via an FALCON 9 launch vehicle from the Air Force Eastern Test Range (AFETR). Payload-class satellites include a variety of spacecraft equipped with specific instruments for various scientific and technological missions. These include communications satellites like Starlink; space stations such as the ISS; scientific satellites like the Hubble; Earth observation satellites from companies like Planet Labs, Umbra, and HawkEye 360; GPS; miniature CubeSats for education and research; and military/defense satellites.

Not visible in the next 10 days
Identifier
54225, 2022-146A
Orbit
GEO
Country
Flag of FRFR / EUTE
Related business
Manufacturer
Airbus/Toulouse
Mission
Operational Commercial Communications
Bus & Motor
EUROSTAR NEO, PPS-5000
Mass
4,476 kg wet, ~4,200 kg dry
Launch date (UTC)
2022-11-03 (4 years ago)
Launch vehicle
FALCON 9
Launch site
Air Force Eastern Test Range (AFETR)
Object type
Payload
Rocket body
Debris
Shape & HBR
Box + 2 Pan, 20.0 m
Radar Cross Section
55.239 m², Large (>1 m²)

Expand to show TLE details & history
Last TLE update: 1 week ago

TLE from 1 week ago
0 HOTBIRD 13G
1 54225U 22146A   26154.73947654  .00000099  00000-0  00000-0 0  9994
2 54225   0.0475 234.9384 0002081 300.0178 356.4552  1.00270716  7336
Epoch: 2026-06-03T17:44Z
TLE epoch observation values (Epoch: 2026-06-03T17:44:50.773Z)
Latitude
-0.04363°
Longitude
12.99981°
Altitude
35,777.675 km
Speed
3.075 km/s
True Right ascension
11h 25m 37s
True Declination
0° 02' 37"
Sunlit
Object was in daylight at epoch
Visualization orbit readout
Latitude
Unknown
Longitude
Unknown
Altitude
Unknown
Speed
Unknown
Apparent Right ascension
Unknown
Apparent Declination
Unknown
Sunlit
N/A
Visualization observer readout
Local Sidereal Time
12:38:58
Azimuth
Unknown
Elevation
Unknown
Doppler factor
Unknown
Orbital elements
Apogee altitude
35,796.74 km
Perigee altitude
35,779.19 km
Semi-major axis
42,166.102 km
Eccentricity
0.00021
Inclination
0.0475°
RAAN
234.9384°
Arg. of periapsis
300.0178°
True anomaly
356.45373°
Mean anomaly
356.4552°
Eccentric anomaly
356.45446°
Mean motion
0.25067 °/min
Orbital period
1,436.17 mins
BSTAR
0
Loading maneuver chart data...
Computing Atmospheric mass density...
Loading historical data...
Loading historical data...
Loading historical data...
Loading historical data...
Loading historical data...
Loading historical data...
Loading historical data...
Other satellites on launch #146 in the year 2022 (2022-11-03 UTC)

Documentation

Showing up to 5 results
|